Huvudsida
METAR-TAF:

METAR-TAF

Flygplatser :

Skövde, Sverige

latitud: 58-27N, longitud: 013-58E, höjd: 98 m

Aktuellt väderrapport

Denna rapport gjordes för 33 minuter sedan, klockan 12:20 UTC
Vind 15 kt från syd/sydväst
Temperatur 19°C
Fuktighet 52%
Tryck 1014 hPa
Sikt 10 km eller mer

METAR: ESGR 181220Z AUTO 21015KT 9999 OVC042/// 19/09 Q1014

Tid: 14:53 (12:53 UTC)


TAF: saknas

Aktuella väderrapporter och prognoser från 4000 flygplatser (METAR- och TAF-rapporter).

De tillgängliga stationerna syns som gula och röda prickar på kartan.

För musen över prickarna för att se namnen på stationerna.

Klicka sedan för att få väderrapporter och prognoser.

För att ändra kartan: Klicka på de gröna knapparna med ett svart kors på för att zooma in; den gröna knappen med ett streck på för att zooma ut; eller på de gröna pilarna för angränsande kartor.


METAR-TAF: